Time,TemperatureF,DewpointF,PressureIn,WindDirection,WindDirectionDegrees,WindSpeedMPH,WindSpeedGustMPH,Humidity,HourlyPrecipIn,Conditions,Clouds,dailyrainin,SoftwareType,DateUTC
2013-03-27 00:02:00,27.0,25.0,-100.00,North,-999,-999.0,-999.0,89,-99.99,,,-99.99,,2013-03-27 06:02:00,
2013-03-27 00:12:00,27.0,25.0,-100.00,North,-999,-999.0,-999.0,88,-99.99,,,-99.99,,2013-03-27 06:12:00,
2013-03-27 00:22:00,27.0,25.0,-100.00,North,-999,-999.0,-999.0,88,-99.99,,,-99.99,,2013-03-27 06:22:00,
2013-03-27 00:32:00,27.0,25.0,-100.00,North,-999,-999.0,-999.0,88,-99.99,,,-99.99,,2013-03-27 06:32:00,
2013-03-27 00:42:00,28.0,24.0,-100.00,North,-999,-999.0,-999.0,87,-99.99,,,-99.99,,2013-03-27 06:42:00,
2013-03-27 00:53:00,28.0,24.0,-100.00,North,-999,-999.0,-999.0,87,-99.99,,,-99.99,,2013-03-27 06:53:00,
2013-03-27 01:02:00,28.0,24.0,-100.00,North,-999,-999.0,-999.0,85,-99.99,,,-99.99,,2013-03-27 07:02:00,
2013-03-27 01:12:00,28.0,24.0,-100.00,North,-999,-999.0,-999.0,84,-99.99,,,-99.99,,2013-03-27 07:12:00,
2013-03-27 01:22:00,28.0,24.0,-100.00,North,-999,-999.0,-999.0,84,-99.99,,,-99.99,,2013-03-27 07:22:00,
2013-03-27 01:32:00,28.0,24.0,-100.00,North,-999,-999.0,-999.0,84,-99.99,,,-99.99,,2013-03-27 07:32:00,
2013-03-27 01:42:00,28.0,24.0,-100.00,North,-999,-999.0,-999.0,83,-99.99,,,-99.99,,2013-03-27 07:42:00,
2013-03-27 01:53:00,28.0,24.0,-100.00,North,-999,-999.0,-999.0,83,-99.99,,,-99.99,,2013-03-27 07:53:00,
2013-03-27 02:02:00,29.0,24.0,-100.00,North,-999,-999.0,-999.0,82,-99.99,,,-99.99,,2013-03-27 08:02:00,
2013-03-27 02:12:00,29.0,24.0,-100.00,North,-999,-999.0,-999.0,82,-99.99,,,-99.99,,2013-03-27 08:12:00,
2013-03-27 02:22:00,29.0,24.0,-100.00,North,-999,-999.0,-999.0,82,-99.99,,,-99.99,,2013-03-27 08:22:00,
2013-03-27 02:32:00,29.0,24.0,-100.00,North,-999,-999.0,-999.0,82,-99.99,,,-99.99,,2013-03-27 08:32:00,
2013-03-27 02:43:00,29.0,24.0,-100.00,North,-999,-999.0,-999.0,82,-99.99,,,-99.99,,2013-03-27 08:43:00,
2013-03-27 03:01:00,29.0,24.0,-100.00,North,-999,-999.0,-999.0,80,-99.99,,,-99.99,,2013-03-27 09:01:00,
2013-03-27 03:12:00,29.0,24.0,-100.00,North,-999,-999.0,-999.0,80,-99.99,,,-99.99,,2013-03-27 09:12:00,
2013-03-27 03:22:00,29.0,24.0,-100.00,North,-999,-999.0,-999.0,80,-99.99,,,-99.99,,2013-03-27 09:22:00,
2013-03-27 03:32:00,29.0,24.0,-100.00,North,-999,-999.0,-999.0,80,-99.99,,,-99.99,,2013-03-27 09:32:00,
2013-03-27 03:42:00,29.0,24.0,-100.00,North,-999,-999.0,-999.0,81,-99.99,,,-99.99,,2013-03-27 09:42:00,
2013-03-27 03:52:00,29.0,24.0,-100.00,North,-999,-999.0,-999.0,81,-99.99,,,-99.99,,2013-03-27 09:52:00,
2013-03-27 04:02:00,29.0,24.0,-100.00,North,-999,-999.0,-999.0,80,-99.99,,,-99.99,,2013-03-27 10:02:00,
2013-03-27 04:12:00,29.0,24.0,-100.00,North,-999,-999.0,-999.0,81,-99.99,,,-99.99,,2013-03-27 10:12:00,
2013-03-27 04:22:00,29.0,24.0,-100.00,North,-999,-999.0,-999.0,81,-99.99,,,-99.99,,2013-03-27 10:22:00,
2013-03-27 04:32:00,29.0,24.0,-100.00,North,-999,-999.0,-999.0,81,-99.99,,,-99.99,,2013-03-27 10:32:00,
2013-03-27 04:42:00,29.0,24.0,-100.00,North,-999,-999.0,-999.0,80,-99.99,,,-99.99,,2013-03-27 10:42:00,
2013-03-27 04:53:00,29.0,24.0,-100.00,North,-999,-999.0,-999.0,80,-99.99,,,-99.99,,2013-03-27 10:53:00,
2013-03-27 05:02:00,28.0,23.0,-100.00,North,-999,-999.0,-999.0,81,-99.99,,,-99.99,,2013-03-27 11:02:00,
2013-03-27 05:11:00,28.0,23.0,-100.00,North,-999,-999.0,-999.0,81,-99.99,,,-99.99,,2013-03-27 11:11:00,
2013-03-27 05:22:00,28.0,23.0,-100.00,North,-999,-999.0,-999.0,81,-99.99,,,-99.99,,2013-03-27 11:22:00,
2013-03-27 05:30:00,28.0,23.0,-100.00,North,-999,-999.0,-999.0,81,-99.99,,,-99.99,,2013-03-27 11:30:00,
2013-03-27 05:32:00,28.0,23.0,-100.00,North,-999,-999.0,-999.0,81,-99.99,,,-99.99,,2013-03-27 11:32:00,
2013-03-27 05:42:00,29.0,23.0,-100.00,North,-999,-999.0,-999.0,80,-99.99,,,-99.99,,2013-03-27 11:42:00,
2013-03-27 05:52:00,29.0,23.0,-100.00,North,-999,-999.0,-999.0,80,-99.99,,,-99.99,,2013-03-27 11:52:00,
2013-03-27 06:02:00,28.0,23.0,-100.00,North,-999,-999.0,-999.0,81,-99.99,,,-99.99,,2013-03-27 12:02:00,
2013-03-27 06:12:00,28.0,23.0,-100.00,North,-999,-999.0,-999.0,81,-99.99,,,-99.99,,2013-03-27 12:12:00,
2013-03-27 06:22:00,28.0,23.0,-100.00,North,-999,-999.0,-999.0,81,-99.99,,,-99.99,,2013-03-27 12:22:00,
2013-03-27 06:42:00,28.0,23.0,-100.00,North,-999,-999.0,-999.0,81,-99.99,,,-99.99,,2013-03-27 12:42:00,
2013-03-27 06:52:00,28.0,23.0,-100.00,North,-999,-999.0,-999.0,81,-99.99,,,-99.99,,2013-03-27 12:52:00,
2013-03-27 07:02:00,28.0,23.0,-100.00,North,-999,-999.0,-999.0,81,-99.99,,,-99.99,,2013-03-27 13:02:00,
2013-03-27 07:12:00,28.0,23.0,-100.00,North,-999,-999.0,-999.0,82,-99.99,,,-99.99,,2013-03-27 13:12:00,
2013-03-27 07:22:00,28.0,23.0,-100.00,North,-999,-999.0,-999.0,82,-99.99,,,-99.99,,2013-03-27 13:22:00,
2013-03-27 07:32:00,28.0,23.0,-100.00,North,-999,-999.0,-999.0,82,-99.99,,,-99.99,,2013-03-27 13:32:00,
2013-03-27 07:42:00,28.0,24.0,-100.00,North,-999,-999.0,-999.0,82,-99.99,,,-99.99,,2013-03-27 13:42:00,
2013-03-27 07:53:00,28.0,24.0,-100.00,North,-999,-999.0,-999.0,82,-99.99,,,-99.99,,2013-03-27 13:53:00,
2013-03-27 08:02:00,29.0,24.0,-100.00,North,-999,-999.0,-999.0,81,-99.99,,,-99.99,,2013-03-27 14:02:00,
2013-03-27 08:11:00,29.0,24.0,-100.00,North,-999,-999.0,-999.0,81,-99.99,,,-99.99,,2013-03-27 14:11:00,
2013-03-27 08:22:00,29.0,24.0,-100.00,North,-999,-999.0,-999.0,81,-99.99,,,-99.99,,2013-03-27 14:22:00,
2013-03-27 08:32:00,29.0,24.0,-100.00,North,-999,-999.0,-999.0,81,-99.99,,,-99.99,,2013-03-27 14:32:00,
2013-03-27 08:42:00,29.0,24.0,-100.00,North,-999,-999.0,-999.0,80,-99.99,,,-99.99,,2013-03-27 14:42:00,
2013-03-27 08:52:00,29.0,24.0,-100.00,North,-999,-999.0,-999.0,80,-99.99,,,-99.99,,2013-03-27 14:52:00,
2013-03-27 09:02:00,30.0,25.0,-100.00,North,-999,-999.0,-999.0,79,-99.99,,,-99.99,,2013-03-27 15:02:00,
2013-03-27 09:11:00,30.0,25.0,-100.00,North,-999,-999.0,-999.0,78,-99.99,,,-99.99,,2013-03-27 15:11:00,
2013-03-27 09:22:00,30.0,25.0,-100.00,North,-999,-999.0,-999.0,78,-99.99,,,-99.99,,2013-03-27 15:22:00,
2013-03-27 09:32:00,30.0,25.0,-100.00,North,-999,-999.0,-999.0,78,-99.99,,,-99.99,,2013-03-27 15:32:00,
2013-03-27 09:42:00,33.0,25.0,-100.00,North,-999,-999.0,-999.0,73,-99.99,,,-99.99,,2013-03-27 15:42:00,
2013-03-27 09:52:00,33.0,25.0,-100.00,North,-999,-999.0,-999.0,73,-99.99,,,-99.99,,2013-03-27 15:52:00,
2013-03-27 10:02:00,35.0,26.0,-100.00,North,-999,-999.0,-999.0,69,-99.99,,,-99.99,,2013-03-27 16:02:00,
2013-03-27 10:12:00,39.0,27.0,-100.00,North,-999,-999.0,-999.0,63,-99.99,,,-99.99,,2013-03-27 16:12:00,
2013-03-27 10:22:00,39.0,27.0,-100.00,North,-999,-999.0,-999.0,63,-99.99,,,-99.99,,2013-03-27 16:22:00,
2013-03-27 10:32:00,39.0,27.0,-100.00,North,-999,-999.0,-999.0,63,-99.99,,,-99.99,,2013-03-27 16:32:00,
2013-03-27 10:42:00,47.0,29.0,-100.00,North,-999,-999.0,-999.0,48,-99.99,,,-99.99,,2013-03-27 16:42:00,
2013-03-27 10:52:00,47.0,29.0,-100.00,North,-999,-999.0,-999.0,48,-99.99,,,-99.99,,2013-03-27 16:52:00,
2013-03-27 11:11:00,45.0,28.0,-100.00,North,-999,-999.0,-999.0,50,-99.99,,,-99.99,,2013-03-27 17:11:00,
2013-03-27 11:22:00,45.0,28.0,-100.00,North,-999,-999.0,-999.0,50,-99.99,,,-99.99,,2013-03-27 17:22:00,
2013-03-27 11:32:00,45.0,28.0,-100.00,North,-999,-999.0,-999.0,50,-99.99,,,-99.99,,2013-03-27 17:32:00,
2013-03-27 11:44:00,41.0,28.0,-100.00,North,-999,-999.0,-999.0,57,-99.99,,,-99.99,,2013-03-27 17:44:00,
2013-03-27 11:52:00,41.0,28.0,-100.00,North,-999,-999.0,-999.0,57,-99.99,,,-99.99,,2013-03-27 17:52:00,
2013-03-27 12:02:00,45.0,29.0,-100.00,North,-999,-999.0,-999.0,52,-99.99,,,-99.99,,2013-03-27 18:02:00,
2013-03-27 12:12:00,48.0,29.0,-100.00,North,-999,-999.0,-999.0,48,-99.99,,,-99.99,,2013-03-27 18:12:00,
2013-03-27 12:22:00,48.0,29.0,-100.00,North,-999,-999.0,-999.0,48,-99.99,,,-99.99,,2013-03-27 18:22:00,
2013-03-27 12:32:00,48.0,29.0,-100.00,North,-999,-999.0,-999.0,48,-99.99,,,-99.99,,2013-03-27 18:32:00,
2013-03-27 12:42:00,48.0,29.0,-100.00,North,-999,-999.0,-999.0,46,-99.99,,,-99.99,,2013-03-27 18:42:00,
2013-03-27 12:53:00,48.0,29.0,-100.00,North,-999,-999.0,-999.0,46,-99.99,,,-99.99,,2013-03-27 18:53:00,
2013-03-27 13:02:00,44.0,28.0,-100.00,North,-999,-999.0,-999.0,51,-99.99,,,-99.99,,2013-03-27 19:02:00,
2013-03-27 13:12:00,45.0,28.0,-100.00,North,-999,-999.0,-999.0,50,-99.99,,,-99.99,,2013-03-27 19:12:00,
2013-03-27 13:21:00,45.0,28.0,-100.00,North,-999,-999.0,-999.0,50,-99.99,,,-99.99,,2013-03-27 19:21:00,
2013-03-27 13:32:00,45.0,28.0,-100.00,North,-999,-999.0,-999.0,50,-99.99,,,-99.99,,2013-03-27 19:32:00,
2013-03-27 13:42:00,49.0,28.0,-100.00,North,-999,-999.0,-999.0,44,-99.99,,,-99.99,,2013-03-27 19:42:00,
2013-03-27 13:52:00,49.0,28.0,-100.00,North,-999,-999.0,-999.0,44,-99.99,,,-99.99,,2013-03-27 19:52:00,
2013-03-27 14:02:00,49.0,28.0,-100.00,North,-999,-999.0,-999.0,43,-99.99,,,-99.99,,2013-03-27 20:02:00,
2013-03-27 14:12:00,49.0,28.0,-100.00,North,-999,-999.0,-999.0,44,-99.99,,,-99.99,,2013-03-27 20:12:00,
2013-03-27 14:22:00,49.0,28.0,-100.00,North,-999,-999.0,-999.0,44,-99.99,,,-99.99,,2013-03-27 20:22:00,
2013-03-27 14:32:00,49.0,28.0,-100.00,North,-999,-999.0,-999.0,44,-99.99,,,-99.99,,2013-03-27 20:32:00,
2013-03-27 14:42:00,56.0,30.0,-100.00,North,-999,-999.0,-999.0,37,-99.99,,,-99.99,,2013-03-27 20:42:00,
2013-03-27 14:52:00,56.0,30.0,-100.00,North,-999,-999.0,-999.0,37,-99.99,,,-99.99,,2013-03-27 20:52:00,
2013-03-27 15:02:00,56.0,29.0,-100.00,North,-999,-999.0,-999.0,35,-99.99,,,-99.99,,2013-03-27 21:02:00,
2013-03-27 15:12:00,57.0,30.0,-100.00,North,-999,-999.0,-999.0,35,-99.99,,,-99.99,,2013-03-27 21:12:00,
2013-03-27 15:22:00,57.0,30.0,-100.00,North,-999,-999.0,-999.0,35,-99.99,,,-99.99,,2013-03-27 21:22:00,
2013-03-27 15:42:00,51.0,24.0,-100.00,North,-999,-999.0,-999.0,34,-99.99,,,-99.99,,2013-03-27 21:42:00,
2013-03-27 15:52:00,51.0,24.0,-100.00,North,-999,-999.0,-999.0,34,-99.99,,,-99.99,,2013-03-27 21:52:00,
2013-03-27 16:02:00,52.0,24.0,-100.00,North,-999,-999.0,-999.0,33,-99.99,,,-99.99,,2013-03-27 22:02:00,
2013-03-27 16:12:00,52.0,24.0,-100.00,North,-999,-999.0,-999.0,33,-99.99,,,-99.99,,2013-03-27 22:12:00,
2013-03-27 16:23:00,52.0,24.0,-100.00,North,-999,-999.0,-999.0,33,-99.99,,,-99.99,,2013-03-27 22:23:00,
2013-03-27 16:32:00,52.0,24.0,-100.00,North,-999,-999.0,-999.0,33,-99.99,,,-99.99,,2013-03-27 22:32:00,
2013-03-27 16:42:00,50.0,24.0,-100.00,North,-999,-999.0,-999.0,34,-99.99,,,-99.99,,2013-03-27 22:42:00,
2013-03-27 16:52:00,50.0,24.0,-100.00,North,-999,-999.0,-999.0,34,-99.99,,,-99.99,,2013-03-27 22:52:00,
2013-03-27 17:02:00,49.0,24.0,-100.00,North,-999,-999.0,-999.0,35,-99.99,,,-99.99,,2013-03-27 23:02:00,
2013-03-27 17:11:00,49.0,23.0,-100.00,North,-999,-999.0,-999.0,35,-99.99,,,-99.99,,2013-03-27 23:11:00,
2013-03-27 17:22:00,49.0,23.0,-100.00,North,-999,-999.0,-999.0,35,-99.99,,,-99.99,,2013-03-27 23:22:00,
2013-03-27 17:32:00,49.0,23.0,-100.00,North,-999,-999.0,-999.0,35,-99.99,,,-99.99,,2013-03-27 23:32:00,
2013-03-27 17:42:00,49.0,24.0,-100.00,North,-999,-999.0,-999.0,36,-99.99,,,-99.99,,2013-03-27 23:42:00,
2013-03-27 17:52:00,49.0,24.0,-100.00,North,-999,-999.0,-999.0,36,-99.99,,,-99.99,,2013-03-27 23:52:00,
2013-03-27 18:02:00,47.0,23.0,-100.00,North,-999,-999.0,-999.0,39,-99.99,,,-99.99,,2013-03-28 00:02:00,
2013-03-27 18:12:00,48.0,23.0,-100.00,North,-999,-999.0,-999.0,37,-99.99,,,-99.99,,2013-03-28 00:12:00,
2013-03-27 18:22:00,48.0,23.0,-100.00,North,-999,-999.0,-999.0,37,-99.99,,,-99.99,,2013-03-28 00:22:00,
2013-03-27 18:32:00,48.0,23.0,-100.00,North,-999,-999.0,-999.0,37,-99.99,,,-99.99,,2013-03-28 00:32:00,
2013-03-27 18:42:00,49.0,24.0,-100.00,North,-999,-999.0,-999.0,37,-99.99,,,-99.99,,2013-03-28 00:42:00,
2013-03-27 18:52:00,49.0,24.0,-100.00,North,-999,-999.0,-999.0,37,-99.99,,,-99.99,,2013-03-28 00:52:00,
2013-03-27 19:02:00,48.0,23.0,-100.00,North,-999,-999.0,-999.0,37,-99.99,,,-99.99,,2013-03-28 01:02:00,
2013-03-27 19:12:00,47.0,23.0,-100.00,North,-999,-999.0,-999.0,38,-99.99,,,-99.99,,2013-03-28 01:12:00,
2013-03-27 19:22:00,47.0,23.0,-100.00,North,-999,-999.0,-999.0,38,-99.99,,,-99.99,,2013-03-28 01:22:00,
2013-03-27 19:32:00,47.0,23.0,-100.00,North,-999,-999.0,-999.0,38,-99.99,,,-99.99,,2013-03-28 01:32:00,
2013-03-27 19:42:00,43.0,25.0,-100.00,North,-999,-999.0,-999.0,49,-99.99,,,-99.99,,2013-03-28 01:42:00,
2013-03-27 19:52:00,43.0,25.0,-100.00,North,-999,-999.0,-999.0,49,-99.99,,,-99.99,,2013-03-28 01:52:00,
2013-03-27 20:02:00,41.0,26.0,-100.00,North,-999,-999.0,-999.0,54,-99.99,,,-99.99,,2013-03-28 02:02:00,
2013-03-27 20:12:00,39.0,26.0,-100.00,North,-999,-999.0,-999.0,57,-99.99,,,-99.99,,2013-03-28 02:12:00,
2013-03-27 20:22:00,39.0,26.0,-100.00,North,-999,-999.0,-999.0,57,-99.99,,,-99.99,,2013-03-28 02:22:00,
2013-03-27 20:32:00,39.0,26.0,-100.00,North,-999,-999.0,-999.0,57,-99.99,,,-99.99,,2013-03-28 02:32:00,
2013-03-27 20:42:00,39.0,26.0,-100.00,North,-999,-999.0,-999.0,57,-99.99,,,-99.99,,2013-03-28 02:42:00,
2013-03-27 21:02:00,37.0,25.0,-100.00,North,-999,-999.0,-999.0,61,-99.99,,,-99.99,,2013-03-28 03:02:00,
2013-03-27 21:12:00,37.0,25.0,-100.00,North,-999,-999.0,-999.0,61,-99.99,,,-99.99,,2013-03-28 03:12:00,
2013-03-27 21:22:00,37.0,25.0,-100.00,North,-999,-999.0,-999.0,61,-99.99,,,-99.99,,2013-03-28 03:22:00,
2013-03-27 21:32:00,37.0,25.0,-100.00,North,-999,-999.0,-999.0,61,-99.99,,,-99.99,,2013-03-28 03:32:00,
2013-03-27 21:42:00,36.0,25.0,-100.00,North,-999,-999.0,-999.0,64,-99.99,,,-99.99,,2013-03-28 03:42:00,
2013-03-27 21:53:00,36.0,25.0,-100.00,North,-999,-999.0,-999.0,64,-99.99,,,-99.99,,2013-03-28 03:53:00,
2013-03-27 22:02:00,36.0,25.0,-100.00,North,-999,-999.0,-999.0,65,-99.99,,,-99.99,,2013-03-28 04:02:00,
2013-03-27 22:12:00,36.0,25.0,-100.00,North,-999,-999.0,-999.0,64,-99.99,,,-99.99,,2013-03-28 04:12:00,
2013-03-27 22:22:00,36.0,25.0,-100.00,North,-999,-999.0,-999.0,64,-99.99,,,-99.99,,2013-03-28 04:22:00,
2013-03-27 22:32:00,36.0,25.0,-100.00,North,-999,-999.0,-999.0,64,-99.99,,,-99.99,,2013-03-28 04:32:00,
2013-03-27 22:42:00,36.0,24.0,-100.00,North,-999,-999.0,-999.0,60,-99.99,,,-99.99,,2013-03-28 04:42:00,
2013-03-27 22:52:00,36.0,24.0,-100.00,North,-999,-999.0,-999.0,60,-99.99,,,-99.99,,2013-03-28 04:52:00,
2013-03-27 23:02:00,36.0,24.0,-100.00,North,-999,-999.0,-999.0,60,-99.99,,,-99.99,,2013-03-28 05:02:00,
2013-03-27 23:12:00,36.0,24.0,-100.00,North,-999,-999.0,-999.0,59,-99.99,,,-99.99,,2013-03-28 05:12:00,
2013-03-27 23:22:00,36.0,24.0,-100.00,North,-999,-999.0,-999.0,59,-99.99,,,-99.99,,2013-03-28 05:22:00,
2013-03-27 23:31:00,36.0,24.0,-100.00,North,-999,-999.0,-999.0,59,-99.99,,,-99.99,,2013-03-28 05:31:00,
2013-03-27 23:42:00,39.0,22.0,-100.00,North,-999,-999.0,-999.0,49,-99.99,,,-99.99,,2013-03-28 05:42:00,
2013-03-27 23:52:00,39.0,22.0,-100.00,North,-999,-999.0,-999.0,49,-99.99,,,-99.99,,2013-03-28 05:52:00,